314  
ASUS44 KMOB 240213  
RWRMOB  
REGIONAL WEATHER ROUNDUP  
NATIONAL WEATHER SERVICE MOBILE AL  
900 PM CDT SUN JUL 23 2017  
 
NOTE: "FAIR" INDICATES FEW OR NO CLOUDS BELOW 12,000 FEET WITH NO  
SIGNIFICANT WEATHER AND/OR S TO VISIBILITY
.  
 
* THESE STATIONS ARE PART OF THE UNIVERSITY OF SOUTH ALABAMA  
MESONET AND ARE NOT UNDER NWS OR FAA QUALITY CONTROL.
 
 
ALZ061>064-240300-  
COASTAL ALABAMA  
 
CITY SKY/WX TMP DP RH WIND PRES REMARKS
 
MOBILE REG APT PTCLDY 79 75 87 SW5 29.93R  
BROOKLEY FIELD CLOUDY 80 77 90 S3 29.93R  
USA CAMPUS* NOT AVBL  
DOG RIVER* NOT AVBL  
 
 
CITY SKY/WX TMP DP RH WIND PRES REMARKS
 
GULF SHORES PTCLDY 78 76 95 SW3 29.92S  
 

 
 
ALZ051>060-240300-  
INTERIOR SOUTHWEST AND SOUTH CENTRAL ALABAMA  
 
CITY SKY/WX TMP DP RH WIND PRES REMARKS
 
GREENVILLE CLEAR 80 70 71 SW3 29.92R  
EVERGREEN CLEAR 77 74 90 SW3 29.92R  
ATMORE* NOT AVBL  
ANDALUSIA/OPP CLEAR 80 73 79 CALM 29.91F  
ANDALUSIA* NOT AVBL  
FLORALA APT CLEAR 78 73 84 S3 29.93F  
FLORALA* NOT AVBL  
 

 
 
FLZ001>006-240300-  
WESTERN FLORIDA PANHANDLE  
 
CITY SKY/WX TMP DP RH WIND PRES REMARKS
 
PENSACOLA PTCLDY 82 72 71 SW6 29.92S  
NAS PENSACOLA PTCLDY 81 72 74 W5 29.91S  
MILTON PTCLDY 78 73 84 SW7 29.92S  
WHTNG S FIELD MOCLDY 81 74 79 SW3 29.92S  
 
 
CITY SKY/WX TMP DP RH WIND PRES REMARKS
 
JAY* NOT AVBL  
DUKE FIELD PTCLDY 80 72 76 SW7 29.92S  
CRESTVIEW CLEAR 79 73 82 SW6 29.93F  
VALPARAISO PTCLDY 82 72 71 W8 29.92F  
DESTIN PTCLDY 86 71 60 W8 29.92F  
 

 
 
MSZ076-079-240300-  
INTERIOR SOUTHEAST MISSISSIPPI  
 
CITY SKY/WX TMP DP RH WIND PRES REMARKS
 
LEAKESVILLE* NOT AVBL  
AGRICOLA* NOT AVBL  
 

 
 
MARINE OBSERVATIONS  
 
STATION/POSITION TIME TEMP WIND PRES WAVE
 
AIR SEA DIR/SP/G HT/PER  
(UTC) (F) (DEG/KT/KT) (MB) (FT/S)  
PASCAGOULA 0148 82 270/ 10/ 14 1013.1R  
PETIT BOIS ISLND 0148 81 280/ 17/ 21 1013.9R  
GRAND BAY 0030 83 290/ 5 1014.0S  
KATRINA CUT 0130 83 240/ 18 1012.5S  
CEDAR POINT 0130 79 170/ 9 1012.9R  
E DAUPHIN ISLAND 0100 82 240/ 7/ 10 1012.4F  
MIDDLE BAY LIGHT 0130 83 220/ 5 1013.2R  
USCG MOBILE BAY 0148 79 86 230/ 2/ 5 1013.5R  
STATE DOCKS 0142 81 87 1012.7R  
MEAHER PARK 0130 82 200/ 8 1012.5R  
WEEKS BAY 0045 81 N/A  
FORT MORGAN 0148 83 260/ 17/ 19 N/A  
12 S ORANGE BCH 0150 82 86 240/ 16/ 19 1012.7S 4/ 6  
PENSACOLA BAY 0142 83 89 1013.3F  
64 S DAUPHIN ISL 0150 81 85 240/ 12/ 14 1014.0F 3/ 4  
67 S FORT MORGAN 0130 80 250/ 12 1014.2R  
 

 
 
SELECTED LOCATIONS ACROSS THE REGION  
 
CITY SKY/WX TMP DP RH WIND PRES REMARKS
 
NEW ORLEANS MOCLDY 79 74 84 SW6 29.93S  
GULFPORT CLEAR 75 73 93 W3 29.92R  
PASCAGOULA AP CLEAR 79 72 79 W3 29.91S  
PASCAGOULA* NOT AVBL  
HATTIESBURG CLEAR 77 74 90 SW5 29.92S  
LAUREL PTCLDY 76 73 91 CALM 29.93R  
MERIDIAN CLEAR 80 75 84 S7 29.89S  
JACKSON CLEAR 77 74 90 SW6 29.90S  
MONTGOMERY CLEAR 82 71 69 S7 29.90R  
TROY CLEAR 76 73 91 S3 29.92F  
ASHFORD* NOT AVBL  
DOTHAN CLEAR 80 74 81 SW8 29.96F  
PANAMA CITY CLEAR 81 75 82 CALM 29.93S  
 

 
 
 
 
CLICK HERE TO GO TO PREVIOUS BULLETINS.

The Nexlab AL Page
The Nexlab FL Page
The Nexlab MS Page Main Text Page